This is the latest recevied weather packets stored in our database for station/object NO4D. If no packets are shown the sender has not sent any weather packets the latest 10 day(s).
| Time | Temp. | Humidity | Pressure | Rain* | Wind** | Luminosity | Snow |
|---|---|---|---|---|---|---|---|
| 1777867012 | 12.78° C | 71% | 1017.3 hPa | 0 mm | - | 0 W/m² | - |
| 1777866710 | 12.78° C | 71% | 1017.5 hPa | 0 mm | - | 0 W/m² | - |
| 1777866407 | 13.33° C | 70% | 1017.5 hPa | 0 mm | - | 0 W/m² | - |
| 1777866104 | 13.33° C | 69% | 1017.7 hPa | 0 mm | - | 0 W/m² | - |
| 1777865802 | 12.78° C | 69% | 1017.4 hPa | 0 mm | - | 0 W/m² | - |
| 1777865499 | 12.78° C | 69% | 1017.4 hPa | 0 mm | - | 0 W/m² | - |
| 1777865195 | 12.78° C | 69% | 1017.5 hPa | 0 mm | - | 0 W/m² | - |
| 1777864892 | 13.33° C | 68% | 1017.6 hPa | 0 mm | - | 0 W/m² | - |
| 1777864590 | 13.89° C | 67% | 1017.6 hPa | 0 mm | - | 0 W/m² | - |
| 1777864286 | 13.89° C | 67% | 1017.3 hPa | 0 mm | - | 0 W/m² | - |
| 1777863983 | 13.89° C | 66% | 1017.3 hPa | 0 mm | - | 0 W/m² | - |
| 1777863680 | 13.89° C | 67% | 1017.1 hPa | 0 mm | - | 0 W/m² | - |
| 1777863376 | 13.33° C | 68% | 1017.2 hPa | 0 mm | - | 0 W/m² | - |
| 1777863073 | 13.33° C | 68% | 1017.1 hPa | 0 mm | - | 0 W/m² | - |
| 1777862771 | 13.89° C | 67% | 1017.2 hPa | 0 mm | - | 0 W/m² | - |
| 1777862467 | 13.89° C | 66% | 1017.3 hPa | 0 mm | - | 0 W/m² | - |
| 1777862163 | 13.89° C | 67% | 1017.4 hPa | 0 mm | - | 0 W/m² | - |
| 1777861859 | 13.89° C | 66% | 1017.2 hPa | 0 mm | - | 0 W/m² | - |
| 1777861556 | 13.89° C | 66% | 1017.1 hPa | 0 mm | - | 0 W/m² | - |
| 1777861252 | 13.89° C | 66% | 1017.1 hPa | 0 mm | - | 0 W/m² | - |
| 1777860950 | 13.89° C | 67% | 1017 hPa | 0 mm | - | 0 W/m² | - |
| 1777860646 | 13.89° C | 66% | 1017 hPa | 0 mm | - | 0 W/m² | - |
| 1777860343 | 13.89° C | 66% | 1016.9 hPa | 0 mm | - | 0 W/m² | - |
| 1777860040 | 13.89° C | 65% | 1016.9 hPa | 0 mm | - | 0 W/m² | - |
| 1777859736 | 14.44° C | 64% | 1016.9 hPa | 0 mm | - | 0 W/m² | - |
* Rain latest hour (hover to see other rain measurements)
** Current wind speed in m/s (hover to see current wind gust speed)